International Skating Union - Official Site

Essent ISU World Cup Moscow
January 28-30, 2011

Draw | Lap Times | Index | World Cup

Referee: Hannu  KOIVU  (FIN)
Starter: Roman  DANILOV  (RUS)
StartTime: EndTime: Air Temp: Ice Temp: Humidity:
11:15 11:53 13.4℃ -6.2℃ 34%
Result 5000m Men Division B
Rankings as of Jan 30 2011 1:08PM
Rank: No.: Name: Nation: Time: Behind: Points:
1 2 Joshua  LOSE AUS AUS 6:31.03200m - 19.90 - (19.9)
600m - 50.28 - (30.3)
1000m - 1:21.12 - (30.8)
1400m - 1:51.66 - (30.5)
1800m - 2:22.66 - (31.0)
2200m - 2:53.42 - (30.7)
2600m - 3:24.28 - (30.8)
3000m - 3:55.42 - (31.1)
3400m - 4:26.48 - (31.0)
3800m - 4:57.36 - (30.8)
4200m - 5:28.99 - (31.6)
4600m - 6:00.34 - (31.3)
5000m - 6:31.03 - (30.6)
25
2 77 Slawomir  CHMURA POL POL 6:31.18200m - 20.03 - (20.0)
600m - 50.93 - (30.9)
1000m - 1:21.49 - (30.5)
1400m - 1:52.40 - (30.9)
1800m - 2:23.30 - (30.9)
2200m - 2:54.27 - (30.9)
2600m - 3:25.16 - (30.8)
3000m - 3:56.05 - (30.8)
3400m - 4:26.92 - (30.8)
3800m - 4:57.85 - (30.9)
4200m - 5:28.90 - (31.0)
4600m - 5:59.99 - (31.0)
5000m - 6:31.18 - (31.1)
0.15 19
3 26 Alexej  BAUMGÄRTNER GER GER 6:31.32200m - 19.75 - (19.7)
600m - 49.27 - (29.5)
1000m - 1:18.96 - (29.6)
1400m - 1:48.70 - (29.7)
1800m - 2:18.89 - (30.1)
2200m - 2:49.37 - (30.4)
2600m - 3:20.35 - (30.9)
3000m - 3:51.72 - (31.3)
3400m - 4:23.45 - (31.7)
3800m - 4:55.34 - (31.8)
4200m - 5:27.26 - (31.9)
4600m - 5:59.04 - (31.7)
5000m - 6:31.32 - (32.2)
0.29 15
4 4 Bart  SWINGS BEL BEL 6:31.99200m - 19.06 - (19.0)
600m - 49.48 - (30.4)
1000m - 1:19.83 - (30.3)
1400m - 1:50.69 - (30.8)
1800m - 2:22.09 - (31.4)
2200m - 2:53.39 - (31.3)
2600m - 3:24.91 - (31.5)
3000m - 3:56.63 - (31.7)
3400m - 4:28.12 - (31.4)
3800m - 4:59.27 - (31.1)
4200m - 5:30.43 - (31.1)
4600m - 6:01.45 - (31.0)
5000m - 6:31.99 - (30.5)
0.96 11
5 6 Jordan  BELCHOS CAN CAN 6:35.07200m - 19.20 - (19.2)
600m - 48.33 - (29.1)
1000m - 1:17.82 - (29.4)
1400m - 1:48.05 - (30.2)
1800m - 2:18.82 - (30.7)
2200m - 2:50.04 - (31.2)
2600m - 3:21.51 - (31.4)
3000m - 3:53.07 - (31.5)
3400m - 4:25.18 - (32.1)
3800m - 4:57.41 - (32.2)
4200m - 5:29.78 - (32.3)
4600m - 6:02.58 - (32.8)
5000m - 6:35.07 - (32.4)
4.04 8
6 44 Maxim  BAKLASHKIN KAZ KAZ 6:38.16200m - 19.73 - (19.7)
600m - 50.00 - (30.2)
1000m - 1:20.81 - (30.8)
1400m - 1:52.02 - (31.2)
1800m - 2:23.03 - (31.0)
2200m - 2:53.68 - (30.6)
2600m - 3:24.80 - (31.1)
3000m - 3:56.39 - (31.5)
3400m - 4:28.37 - (31.9)
3800m - 5:00.37 - (32.0)
4200m - 5:33.15 - (32.7)
4600m - 6:05.71 - (32.5)
5000m - 6:38.16 - (32.4)
7.13 6
7 85 Andrey  BURLYAYEV RUS RUS 6:39.78200m - 19.79 - (19.7)
600m - 51.19 - (31.4)
1000m - 1:22.47 - (31.2)
1400m - 1:54.11 - (31.6)
1800m - 2:25.65 - (31.5)
2200m - 2:57.24 - (31.5)
2600m - 3:28.98 - (31.7)
3000m - 4:00.60 - (31.6)
3400m - 4:32.31 - (31.7)
3800m - 5:04.05 - (31.7)
4200m - 5:35.78 - (31.7)
4600m - 6:07.67 - (31.8)
5000m - 6:39.78 - (32.1)
8.75 4
8 37 Marco  CIGNINI ITA ITA 6:40.57200m - 19.08 - (19.0)
600m - 50.67 - (31.5)
1000m - 1:22.23 - (31.5)
1400m - 1:54.82 - (32.5)
1800m - 2:26.78 - (31.9)
2200m - 2:58.28 - (31.5)
2600m - 3:29.76 - (31.4)
3000m - 4:01.41 - (31.6)
3400m - 4:32.97 - (31.5)
3800m - 5:05.11 - (32.1)
4200m - 5:36.56 - (31.4)
4600m - 6:08.54 - (31.9)
5000m - 6:40.57 - (32.0)
9.54 2
9 39 Luca  STEFANI ITA ITA 6:41.20200m - 19.05 - (19.0)
600m - 50.02 - (30.9)
1000m - 1:21.50 - (31.4)
1400m - 1:53.14 - (31.6)
1800m - 2:24.46 - (31.3)
2200m - 2:55.92 - (31.4)
2600m - 3:27.78 - (31.8)
3000m - 3:59.80 - (32.0)
3400m - 4:31.69 - (31.8)
3800m - 5:03.85 - (32.1)
4200m - 5:36.22 - (32.3)
4600m - 6:08.45 - (32.2)
5000m - 6:41.20 - (32.7)
10.17 1
10 84 Pavel  BAYNOV RUS RUS 6:42.73200m - 19.67 - (19.6)
600m - 50.39 - (30.7)
1000m - 1:21.49 - (31.1)
1400m - 1:52.99 - (31.5)
1800m - 2:24.32 - (31.3)
2200m - 2:56.07 - (31.7)
2600m - 3:28.05 - (31.9)
3000m - 4:00.58 - (32.5)
3400m - 4:33.40 - (32.8)
3800m - 5:06.46 - (33.0)
4200m - 5:39.36 - (32.9)
4600m - 6:11.44 - (32.0)
5000m - 6:42.73 - (31.2)
11.70 0
11 5 Vitaly  MIKHAILOV BLR BLR 6:43.07200m - 19.59 - (19.5)
600m - 50.65 - (31.0)
1000m - 1:21.90 - (31.2)
1400m - 1:53.26 - (31.3)
1800m - 2:24.58 - (31.3)
2200m - 2:55.89 - (31.3)
2600m - 3:27.51 - (31.6)
3000m - 3:59.33 - (31.8)
3400m - 4:31.47 - (32.1)
3800m - 5:03.95 - (32.4)
4200m - 5:36.63 - (32.6)
4600m - 6:09.95 - (33.3)
5000m - 6:43.07 - (33.1)
12.04 0
12 24 Benjamin  MACÉ FRA FRA 6:43.92200m - 19.89 - (19.8)
600m - 50.83 - (30.9)
1000m - 1:21.40 - (30.5)
1400m - 1:52.90 - (31.5)
1800m - 2:23.61 - (30.7)
2200m - 2:55.00 - (31.3)
2600m - 3:25.78 - (30.7)
3000m - 3:57.35 - (31.5)
3400m - 4:29.13 - (31.7)
3800m - 5:01.91 - (32.7)
4200m - 5:35.57 - (33.6)
4600m - 6:09.59 - (34.0)
5000m - 6:43.92 - (34.3)
12.89 0
13 87 Mikhail  KOCHNEV RUS RUS 6:44.71200m - 19.26 - (19.2)
600m - 49.56 - (30.3)
1000m - 1:20.94 - (31.3)
1400m - 1:52.32 - (31.3)
1800m - 2:24.13 - (31.8)
2200m - 2:55.71 - (31.5)
2600m - 3:27.46 - (31.7)
3000m - 3:59.37 - (31.9)
3400m - 4:31.83 - (32.4)
3800m - 5:04.40 - (32.5)
4200m - 5:37.45 - (33.0)
4600m - 6:11.04 - (33.5)
5000m - 6:44.71 - (33.6)
13.68 0
14 3 Christian  PICHLER AUT AUT 6:46.05200m - 19.68 - (19.6)
600m - 50.02 - (30.3)
1000m - 1:21.76 - (31.7)
1400m - 1:53.99 - (32.2)
1800m - 2:25.73 - (31.7)
2200m - 2:57.61 - (31.8)
2600m - 3:29.36 - (31.7)
3000m - 4:01.20 - (31.8)
3400m - 4:32.97 - (31.7)
3800m - 5:05.21 - (32.2)
4200m - 5:38.06 - (32.8)
4600m - 6:12.27 - (34.2)
5000m - 6:46.05 - (33.7)
15.02 0
15 23 Pascal  BRIAND FRA FRA 6:47.77200m - 19.62 - (19.6)
600m - 50.70 - (31.0)
1000m - 1:22.74 - (32.0)
1400m - 1:54.53 - (31.7)
1800m - 2:26.93 - (32.4)
2200m - 2:59.10 - (32.1)
2600m - 3:31.76 - (32.6)
3000m - 4:04.49 - (32.7)
3400m - 4:37.14 - (32.6)
3800m - 5:10.07 - (32.9)
4200m - 5:43.28 - (33.2)
4600m - 6:15.62 - (32.3)
5000m - 6:47.77 - (32.1)
16.74 0
16 18 Pavel  KULMA CZE CZE 6:50.53200m - 20.24 - (20.2)
600m - 51.43 - (31.1)
1000m - 1:22.72 - (31.2)
1400m - 1:54.44 - (31.7)
1800m - 2:26.27 - (31.8)
2200m - 2:58.51 - (32.2)
2600m - 3:31.08 - (32.5)
3000m - 4:04.20 - (33.1)
3400m - 4:37.05 - (32.8)
3800m - 5:10.57 - (33.5)
4200m - 5:44.10 - (33.5)
4600m - 6:17.85 - (33.7)
5000m - 6:50.53 - (32.6)
19.50 0
17 82 Marian Cristian  ION ROU ROU 6:51.40200m - 19.72 - (19.7)
600m - 51.61 - (31.8)
1000m - 1:24.31 - (32.7)
1400m - 1:56.90 - (32.5)
1800m - 2:29.43 - (32.5)
2200m - 3:02.07 - (32.6)
2600m - 3:34.77 - (32.7)
3000m - 4:07.51 - (32.7)
3400m - 4:40.06 - (32.5)
3800m - 5:12.68 - (32.6)
4200m - 5:45.48 - (32.8)
4600m - 6:18.36 - (32.8)
5000m - 6:51.40 - (33.0)
20.37 0